Regional Weather Roundup
Issued by NWS San Angelo, TX

Home | Current Version | Previous Version | Text Only | Print | Product List | Glossary On
Versions: 1 2 3 4 5 6 7 8 9 10 11 12 13 14 15 16 17 18 19 20 21 22 23 24 25 26 27 28 29 30 31 32 33 34 35 36 37 38 39 40 41 42 43 44 45 46 47 48 49 50
000
ASUS44 KSJT 231110
RWRSJT
WEST CENTRAL TEXAS REGIONAL WEATHER ROUNDUP
NATIONAL WEATHER SERVICE SAN ANGELO TX
500 AM CST SUN NOV 23 2014

NOTE: "FAIR" INDICATES FEW OR NO CLOUDS BELOW 12,000 FEET WITH NO
SIGNIFICANT WEATHER AND/OR OBSTRUCTIONS TO VISIBILITY.

TXZ049-054-064>066-071>073-076>078-098-099-113-114-127-128-139-140-
154-155-168>170-231200
...LOCATIONS ACROSS WEST CENTRAL TEXAS...

CITY           SKY/WX    TMP DP  RH WIND       PRES   REMARKS
SAN ANGELO     CLEAR     47  41  80 SW6       29.64F
ABILENE        CLEAR     51  49  92 S8        29.59F
DYESS AFB      CLEAR     50  45  83 S3        29.59S
JUNCTION       CLEAR     47  46  97 CALM      29.69F
SWEETWATER     CLEAR     49  41  73 SW15      29.63R
BROWNWOOD      FOG       48  48 100 S5        29.63F VSB 1/2
COLEMAN        SUNNY     51  49  93 S6        29.62F
SONORA         CLEAR     46  45  93 CALM      29.73F
OZONA          FAIR      45  37  76 SW7       29.72F
BRADY          CLEAR     48  48 100 S6        29.65S
$$

TEXAS PANHANDLE/OKLAHOMA PANHANDLE

CITY           SKY/WX    TMP DP  RH WIND       PRES   REMARKS
AMARILLO       PTCLDY    55  20  25 W21G30    29.48S
BORGER         CLOUDY    47  21  35 W7        29.46R
CANADIAN       PTCLDY    42  41  97 CALM      29.43S
DALHART        CLEAR     49  22  34 W18       29.49F
DUMAS            N/A     42  22  46 W13       29.47F WCI  35
GUYMON         NOT AVBL
HEREFORD       SUNNY     48  24  38 MISG      29.53S
PAMPA          PTSUNNY   42  29  59 W12       29.46S WCI  36
PERRYTON       MOCLDY    39  36  88 W7        29.40F WCI  34
$$

SOUTHERN PANHANDLE/SOUTH PLAINS/ROLLING PLAINS

CITY           SKY/WX    TMP DP  RH WIND       PRES   REMARKS
LUBBOCK        MOCLDY    51  25  36 W15       29.56F
SNYDER         CLEAR     44  42  95 S8        29.60F WCI  39
CHILDRESS      PTCLDY    46  43  89 S10       29.47F
SEMINOLE       MOSUNNY   52  23  33 W16G22    29.65R
$$

PERMIAN BASIN

CITY           SKY/WX    TMP DP  RH WIND       PRES   REMARKS
MIDLAND        PTCLDY    52  31  44 SW18      29.63F
ODESSA         PTCLDY    52  27  38 W14       29.65F
WINK           PTCLDY    56  23  27 W20G25    29.66F
$$

FAR WEST/SOUTHWEST MOUNTAINS/TRANS PECOS

CITY           SKY/WX    TMP DP  RH WIND       PRES   REMARKS
ALPINE         SUNNY     53  28  38 W30G41    29.86F
DRYDEN           N/A     56  39  53 SW15      29.70F
EL PASO        PTCLDY    52  20  28 S10G17    29.86S
FORT STOCKTON  CLEAR     54  32  43 SW16G25   29.70F
GUADALUPE PASS CLEAR     45  20  36 SW35G44   29.81R WCI  35
MARFA          CLEAR     34  28  80 SE6       29.89F WCI  29
PECOS          SUNNY     58  27  31 SW15G23   29.69F
$$

DALLAS/FORT WORTH METROPLEX

CITY           SKY/WX    TMP DP  RH WIND       PRES   REMARKS
DFW AIRPORT    CLOUDY    51  51 100 S8        29.60F
FTW MEACHAM    MOCLDY    54  52  93 SW3       29.60F
DAL-EXECUTIVE  FOG       58  56  93 CALM      29.61F VSB 1/2
GRAND PRAIRIE  MOCLDY    55  55 100 SE5       29.62F
ADDISON        NOT AVBL
MESQUITE       NOT AVBL
LANCASTER      FOG       55  53  95 CALM      29.63F VSB 1/4
$$

NORTH CENTRAL TEXAS

CITY           SKY/WX    TMP DP  RH WIND       PRES   REMARKS
SHRMAN/DENISON CLOUDY    58  58 100 S8        29.61F
GAINESVILLE    MOCLDY    51  51  99 SE5       29.60F FOG
BRIDGEPORT     SUNNY     49  49 100 E3        29.59F
DENTON         CLOUDY    52  51  97 S7        29.59F
WAXAHACHIE     FOG       56  56 100 SW6       29.64S VSB 1/4
GRANBURY       SUNNY     54  51  92 CALM      29.62S
$$

WESTERN NORTH TEXAS

CITY           SKY/WX    TMP DP  RH WIND       PRES   REMARKS
WICHITA FALLS  PTCLDY    51  50  96 S13       29.52F
VERNON         CLOUDY    52  50  93 SW18      29.50F
BRECKENRIDGE   SUNNY     52  51  96 S8        29.56F
COMANCHE       CLEAR     54  54 100 SW9       29.61F
$$

CENTRAL AND SOUTH CENTRAL TEXAS

CITY           SKY/WX    TMP DP  RH WIND       PRES   REMARKS
AUSTIN/BERGSTM PTCLDY    54  54 100 SW6       29.67F
WACO           MOCLDY    53  53 100 SW3       29.64F
HILLSBORO      MOSUNNY   54  52  93 S3        29.63F FOG
TEMPLE         CLOUDY    55  52  88 SE5       29.64F
KILLEEN-GRAY   PTCLDY    53  52  98 S6        29.65F
FORT HOOD      MOCLDY    56  54  93 CALM      29.65F
GEORGETOWN     MOCLDY    55  54  94 SW5       29.66F
LAGO VISTA     FAIR      56  54  94 SW6       29.68S
SAN MARCOS     PTCLDY    54  54 100 SW5       29.69F
NEW BRAUNFELS  CLEAR     55  53  93 SW6       29.68F FOG
RANDOLPH AFB   CLEAR     56  54  92 SW5       29.70S
SAN ANTONIO    PTCLDY    55  52  89 CALM      29.71S
STINSON        CLEAR     51  50  96 SW6       29.70S
PLEASANTON     NOT AVBL
LA GRANGE      CLOUDY    61  60  96 SW5       29.66S
GIDDINGS       CLOUDY    59  58  97 SW5       29.70S
$$

EAST TEXAS

CITY           SKY/WX    TMP DP  RH WIND       PRES   REMARKS
PARIS          CLOUDY    59  57  94 SE7       29.62F
CLARKSVILLE    NOT AVBL
TYLER          LGT RAIN  61  58  90 W6        29.62R
LONGVIEW       LGT RAIN  62  59  90 SE10      29.57F
PALESTINE      LGT RAIN  62  62 100 W7        29.63S
NACOGDOCHES    CLOUDY    63  61  94 SE15      29.59F
$$

TEXAS HILL COUNTRY AND EDWARDS PLATEAU

CITY           SKY/WX    TMP DP  RH WIND       PRES   REMARKS
LLANO          FOG       48  48 100 CALM      29.69F VSB 1/2
HORSESHOE BAY  FAIR      50  50 100 CALM      29.67F
KERRVILLE      PTCLDY    45  44  95 CALM      29.71F
FREDERICKSBRG  CLEAR     50  50  98 W5        29.69F
ROCKSPRINGS    SUNNY     52  43  71 MISG      29.74F
HONDO          CLEAR     44  44 100 CALM      29.74R
UVALDE         SUNNY     48  47  97 CALM      29.73F FOG
DEL RIO        PTCLDY    47  46  97 SE3       29.71F FOG
$$

SOUTHEAST TEXAS

CITY           SKY/WX    TMP DP  RH WIND       PRES   REMARKS
COLLEGE STN    CLOUDY    58  58 100 SW7       29.64S
CALDWELL       CLOUDY    57  57 100 SW7       29.69S
CROCKETT       CLOUDY    64  64 100 SW6       29.64F
BRENHAM        CLOUDY    60  60  97 W6        29.66S
HUNTSVILLE     CLOUDY    59  58  96 SW6       29.62R
CONROE         MOCLDY    58  57  97 CALM      29.63S
HOUSTON BUSH   MOCLDY    62  60  93 S6        29.62S
HOUSTON HOBBY  PTCLDY    61  59  93 S10       29.63F
PERLAND        PTCLDY    61  59  93 S13       29.66F
WHARTON        SUNNY     58  57  96 SW8       29.70R
$$

THE UPPER TEXAS COAST

CITY           SKY/WX    TMP DP  RH WIND       PRES   REMARKS
ORANGE         CLOUDY   N/A N/A N/A N3        29.59F
PORT ARTHUR    CLOUDY    61  59  93 W12       29.60R
GALVESTON      PTCLDY    62  60  93 S10       29.68R
ANGLETON       PTCLDY    59  59 100 SW7       29.67S
BAY CITY         N/A     61  60  99 SW7       29.68S
$$

TEXAS COASTAL BEND, RIO GRANDE PLAINS DEEP SOUTH TEXAS

CITY           SKY/WX    TMP DP  RH WIND       PRES   REMARKS
VICTORIA       CLEAR     59  55  87 SW8       29.70S
BEEVILLE       FAIR      55  55  98 CALM      29.72F
ROCKPORT       CLEAR     61  59  93 W7        29.71F
PORT ARANSAS   SUNNY     61  60  96 W6        29.73S
PORT LAVACA    SUNNY     58  56  95 SW7       29.71S
CORPUS CHRISTI CLEAR     59  58  96 SW6       29.73F
KINGSVILLE NAS NOT AVBL
COTULLA        CLEAR     52  49  89 CALM      29.73S
LAREDO         CLEAR     55  51  86 NW5       29.77S
BROWNSVILLE    CLEAR     61  60  97 NW5       29.77S FOG
PORT ISABEL    CLEAR     60  60 100 W5        29.76S FOG
HEBBRONVILLE   SUNNY     58  54  85 W8        29.75S
MCALLEN        FOG       61  61 100 CALM      29.77F VSB 1/4
WESLACO        FOG       62  60  94 W3        29.77S VSB<1/4
FALFURRIAS     SUNNY     57  56  95 CALM      29.75S
EDINBURG       FOG       64  62  93 SW3       29.77S VSB 1/4
$$



USA.gov is the U.S. government's official web portal to all federal, state and local government web resources and services.